Wind_Speed
12 12 11 11 11 12 12 10 9 8 10 12 14 15 18 20 21 23 23 23 23 25 26 27 28 29 30 31 31 31 29 29 29 28 28 28 27 27 28 27 25 24 25 24
13 13 12 12 12 12 11 10 10 10 12 14 17 18 19 21 22 23 24 25 25 25 25 26 27 27 28 29 30 30 30 29 30 30 29 29 28 29 29 27 27 27 25 23
14 15 14 13 12 10 10 11 12 13 14 16 19 20 21 23 24 24 24 25 24 24 25 25 25 27 28 28 28 28 29 31 31 31 30 30 29 28 28 27 28 27 26 25
14 15 15 12 10 10 11 13 15 16 17 18 20 22 22 23 24 23 24 24 24 24 25 26 25 27 27 27 28 28 29 30 30 30 30 30 30 29 29 28 28 28 27 26
14 15 14 12 10 11 13 14 16 17 18 20 21 23 22 23 23 23 24 25 24 24 25 26 26 27 26 26 27 28 28 29 29 29 30 30 29 28 29 29 28 28 27 25
13 14 14 13 12 12 14 15 16 16 17 18 19 22 23 22 22 21 22 24 24 23 24 25 25 25 25 26 26 27 27 28 28 29 29 29 30 29 29 28 28 27 26 25
13 14 14 13 11 11 13 14 15 15 15 15 17 19 20 21 21 21 21 21 20 20 22 23 24 24 24 24 25 26 26 26 26 27 28 29 28 28 29 29 28 27 26 26
13 13 13 12 11 11 12 13 13 14 15 15 16 16 17 17 17 18 19 19 19 19 21 22 23 24 24 24 24 25 25 26 27 27 27 28 28 28 29 28 28 28 27 26
13 12 12 12 12 12 12 13 13 15 15 16 16 16 17 17 18 19 19 17 18 19 20 21 22 23 23 24 24 24 24 24 25 25 26 26 26 27 28 28 28 28 27 26
13 13 13 14 14 14 14 15 15 15 17 17 16 17 18 18 18 18 19 18 19 19 19 21 22 23 23 23 24 24 24 24 24 24 23 24 24 25 25 26 26 27 27 27
13 13 13 14 14 14 16 17 16 16 17 17 18 18 18 19 19 20 19 18 18 19 20 21 21 21 22 23 23 24 24 24 24 24 23 23 23 23 23 23 24 25 26 27
15 14 14 14 14 14 16 17 16 17 18 18 19 18 16 19 20 20 19 19 19 20 20 21 21 20 21 22 23 23 23 23 23 23 23 23 22 23 23 23 24 24 25 26
15 15 14 14 15 15 16 15 16 18 17 17 18 19 18 19 20 19 19 19 19 20 21 21 21 20 21 21 21 22 22 21 21 21 22 22 23 23 23 22 22 23 24 24
15 15 14 14 14 15 16 17 17 17 17 17 17 18 18 19 19 18 19 19 20 20 20 20 20 20 21 21 20 20 19 19 18 19 20 21 21 22 22 22 22 22 22 23
16 15 14 13 13 14 15 16 17 16 16 17 17 17 18 18 19 20 20 20 21 21 21 20 20 20 20 20 19 18 18 18 17 18 18 18 19 19 20 19 20 20 21 21
16 16 15 14 15 15 15 15 15 15 15 17 17 17 18 19 19 20 21 21 21 21 21 20 20 19 19 18 17 16 16 16 16 16 15 16 16 17 18 18 18 19 19 19
16 16 16 14 14 15 15 15 15 15 15 15 16 16 17 18 19 20 20 21 21 21 20 19 18 18 17 16 16 15 15 14 14 14 13 14 14 15 15 15 16 16 16 16
17 17 15 14 14 15 14 13 13 13 14 15 16 17 17 18 18 19 20 20 20 19 19 17 17 16 16 15 14 14 13 13 12 12 11 11 12 12 12 12 13 14 15 15
16 15 15 13 13 13 12 12 12 12 13 14 15 15 16 17 18 18 19 19 18 18 17 16 15 15 14 13 13 12 12 12 11 11 10 11 11 11 11 12 12 13 13 13
16 15 14 13 13 12 10 10 11 12 12 14 15 15 16 17 17 18 18 18 17 15 14 14 14 14 12 11 10 10 10 10 9 9 9 9 10 10 10 11 11 11 12 12
15 13 13 12 12 9 9 9 10 11 12 13 14 15 15 16 17 18 17 16 15 14 13 13 13 12 10 9 8 7 7 7 7 7 7 8 8 8 8 9 10 9 10 10
15 13 13 12 10 8 8 8 9 10 11 12 13 14 14 15 16 16 16 15 14 12 12 12 10 9 8 7 7 6 5 5 5 5 5 6 6 6 6 6 7 7 8 8
13 13 11 11 9 7 7 7 8 9 10 11 11 12 13 14 15 15 14 14 12 11 10 9 8 7 6 5 5 5 4 4 4 3 3 4 4 4 3 4 4 4 5 5
13 12 11 10 7 6 6 7 8 8 9 9 10 11 12 13 13 12 13 12 11 10 8 7 7 6 5 5 4 3 3 3 3 2 3 2 2 2 2 1 1 1 2 3
12 12 11 9 7 6 6 6 6 7 8 9 10 10 11 11 11 11 12 11 10 9 8 7 6 6 6 5 4 4 4 3 3 2 2 2 2 1 1 2 2 2 2 2
12 10 10 8 7 5 4 4 4 6 7 8 8 9 9 9 10 10 11 10 10 9 8 8 7 7 7 6 6 6 5 5 4 4 4 4 4 4 4 4 4 3 3 3
Wind_Direction
207 202 198 198 201 208 208 212 224 243 265 272 276 278 277 279 280 281 281 280 281 280 277 277 276 274 273 273 273 272 270 270 266 265 267 266 266 266 264 260 257 258 260 259
200 195 197 202 206 213 221 234 242 245 259 269 272 274 276 274 275 278 279 280 280 279 279 280 279 276 274 274 272 271 271 271 270 268 268 266 267 266 264 260 256 259 259 256
196 196 202 206 208 219 236 249 249 244 246 258 266 270 271 270 271 273 275 275 275 280 280 282 280 277 277 274 274 273 270 271 271 269 268 266 266 265 263 261 259 257 256 257
201 203 206 212 218 234 243 245 249 249 249 252 259 265 266 269 271 271 271 272 276 277 279 279 279 279 278 275 274 274 272 271 270 269 268 267 266 265 265 264 260 257 257 259
211 209 211 218 229 240 243 246 251 255 257 256 259 266 268 271 274 273 271 271 274 276 279 280 280 277 277 277 277 277 275 273 271 270 267 265 264 264 263 262 261 260 260 260
211 214 218 220 226 238 250 254 256 259 262 266 265 269 271 274 278 279 275 275 277 274 277 279 279 277 277 278 278 279 277 274 271 270 267 264 263 262 262 261 261 263 263 262
207 216 223 228 232 242 255 262 265 265 268 274 276 274 277 279 281 281 283 284 285 280 280 280 281 281 281 281 278 279 276 274 272 270 268 265 262 262 261 262 263 264 264 262
216 220 227 237 250 258 259 264 270 276 278 280 281 287 288 286 288 292 292 291 290 288 287 284 285 284 282 281 280 277 275 272 274 271 268 266 263 262 263 264 264 263 264 263
229 234 240 246 256 265 260 261 273 278 283 288 290 293 293 294 298 299 302 300 298 296 294 293 290 288 285 283 282 279 275 274 274 272 268 268 264 264 264 264 263 262 263 263
239 247 248 252 257 261 259 261 266 275 283 289 293 294 298 301 305 311 312 306 304 299 297 295 294 291 289 286 283 280 278 275 274 272 270 268 266 265 263 262 261 262 262 263
245 251 249 253 258 259 261 265 271 280 284 290 292 294 299 303 308 311 314 311 309 306 300 298 298 293 291 288 285 281 278 276 273 271 269 267 266 266 264 262 261 262 262 262
248 255 257 260 259 259 262 266 272 282 286 289 294 297 303 309 311 312 313 310 306 306 303 299 298 295 292 290 287 283 280 276 273 270 268 265 265 264 262 262 261 262 263 262
248 255 260 264 263 261 264 270 278 283 287 288 292 298 306 310 313 312 313 312 309 308 307 303 299 298 295 292 288 285 281 278 275 271 269 267 266 264 261 260 260 261 262 261
249 258 264 270 270 264 266 270 278 285 287 290 296 302 305 309 314 316 315 313 312 310 309 307 303 300 298 296 292 288 282 279 276 272 270 268 266 262 259 258 259 259 259 258
251 259 264 267 266 264 268 270 277 284 288 294 298 301 306 309 311 313 314 313 312 311 309 308 304 302 301 299 295 290 282 276 274 272 271 268 263 261 259 258 258 258 259 259
255 257 258 261 264 265 271 272 276 285 292 298 300 304 306 310 311 312 313 313 311 310 308 306 303 302 301 299 293 287 283 276 272 270 270 269 266 262 261 261 260 260 261 260
253 257 258 258 263 267 269 273 278 285 294 300 306 311 311 311 311 312 312 312 312 311 309 307 305 303 301 298 293 287 282 277 271 267 267 267 266 265 263 262 261 260 262 263
250 256 256 256 261 265 274 274 278 285 293 301 307 310 312 313 315 316 315 314 314 311 309 308 306 303 300 298 294 288 280 273 271 270 270 270 268 265 262 259 258 260 260 263
240 244 251 256 263 270 271 274 281 289 294 300 306 311 316 318 318 318 317 316 314 313 312 310 309 307 304 300 295 286 281 275 271 270 268 269 269 266 263 263 262 261 261 262
236 242 251 258 264 269 276 275 283 291 299 307 313 318 321 322 322 322 321 319 318 316 316 316 315 313 308 303 299 290 285 277 269 266 266 270 269 268 266 266 267 267 266 264
234 242 250 256 263 273 279 279 291 300 311 315 318 321 322 323 324 324 323 323 322 320 319 319 318 316 312 309 305 302 296 284 273 268 269 273 274 271 267 267 268 267 264 261
232 239 248 255 260 271 282 287 294 307 313 316 321 324 323 324 327 328 327 326 326 324 324 325 324 321 316 314 313 310 303 293 279 273 276 278 278 279 273 265 261 260 261 262
231 237 247 255 259 264 275 287 296 307 313 318 325 328 328 330 332 332 332 333 333 332 333 335 337 333 331 330 327 321 310 303 297 292 287 287 285 290 282 274 270 266 266 270
228 234 239 248 247 254 269 284 303 310 315 323 329 331 332 335 339 342 341 340 342 343 344 348 351 354 356 358 354 357 354 346 334 323 319 319 322 317 303 286 284 290 297 294
230 230 236 247 249 255 273 283 302 314 320 325 329 334 339 345 351 354 353 354 356 359 3 7 12 21 25 27 28 30 31 25 22 17 8 8 7 10 34 42 34 23 11 356
227 229 234 244 251 265 280 294 311 320 323 331 339 345 350 355 3 6 7 10 12 17 23 27 31 37 42 45 50 51 54 52 48 52 55 59 68 72 68 61 55 52 46 40
Height
5812 5815 5816 5818 5819 5821 5822 5823 5824 5825 5824 5824 5824 5824 5823 5822 5822 5822 5822 5821 5821 5820 5818 5817 5817 5816 5815 5814 5814 5814 5814 5815 5815 5816 5817 5819 5820 5821 5821 5822 5822 5823 5824 5825
5810 5812 5813 5814 5816 5817 5818 5819 5821 5822 5821 5820 5820 5820 5819 5818 5817 5817 5817 5816 5815 5814 5813 5812 5811 5810 5809 5808 5807 5808 5808 5808 5809 5810 5812 5812 5813 5813 5814 5815 5816 5816 5816 5818
5807 5809 5810 5811 5812 5814 5815 5817 5817 5817 5817 5817 5816 5815 5814 5813 5813 5812 5810 5810 5809 5808 5807 5806 5805 5804 5803 5802 5802 5802 5803 5803 5803 5804 5805 5806 5806 5805 5806 5808 5809 5808 5810 5811
5804 5805 5807 5808 5809 5811 5812 5813 5813 5813 5813 5813 5813 5811 5810 5808 5807 5806 5805 5804 5804 5803 5802 5801 5799 5798 5796 5796 5796 5796 5796 5796 5796 5797 5798 5799 5799 5799 5800 5800 5801 5802 5803 5804
5801 5802 5803 5804 5806 5807 5808 5809 5809 5809 5809 5809 5808 5807 5806 5804 5802 5801 5800 5799 5798 5797 5796 5795 5793 5792 5790 5790 5790 5790 5789 5789 5790 5790 5790 5791 5792 5793 5794 5795 5796 5797 5797 5798
5799 5800 5800 5801 5803 5804 5805 5805 5805 5805 5805 5805 5804 5802 5801 5799 5798 5796 5794 5793 5792 5791 5790 5789 5788 5786 5785 5784 5784 5783 5783 5783 5783 5782 5783 5783 5785 5786 5787 5788 5789 5790 5791 5791
5797 5798 5798 5799 5800 5801 5801 5802 5802 5801 5801 5800 5798 5796 5796 5794 5793 5791 5789 5788 5786 5785 5784 5783 5782 5781 5779 5777 5777 5776 5776 5776 5776 5775 5775 5776 5778 5779 5780 5781 5781 5783 5784 5784
5794 5796 5796 5797 5797 5798 5798 5798 5798 5797 5796 5795 5794 5792 5791 5789 5788 5785 5784 5783 5781 5780 5779 5777 5776 5774 5773 5771 5771 5770 5769 5769 5769 5768 5769 5769 5771 5772 5773 5773 5774 5776 5777 5777
5791 5793 5794 5794 5794 5794 5794 5794 5794 5793 5792 5791 5790 5788 5786 5785 5783 5781 5779 5777 5776 5775 5773 5772 5770 5768 5766 5765 5764 5763 5763 5762 5762 5762 5762 5762 5763 5764 5765 5766 5767 5768 5770 5771
5788 5790 5791 5791 5791 5791 5792 5791 5791 5790 5788 5787 5786 5784 5782 5780 5779 5777 5774 5772 5771 5769 5767 5766 5764 5762 5760 5758 5757 5756 5756 5756 5755 5755 5755 5756 5756 5757 5758 5758 5760 5761 5762 5763
5785 5786 5787 5787 5788 5788 5788 5788 5786 5786 5784 5783 5781 5782 5779 5776 5774 5772 5770 5768 5766 5764 5762 5760 5758 5756 5754 5752 5751 5750 5749 5749 5748 5748 5749 5749 5750 5750 5751 5751 5752 5753 5754 5755
5782 5783 5783 5784 5784 5784 5784 5783 5783 5783 5781 5779 5777 5779 5774 5772 5770 5767 5765 5763 5762 5760 5757 5755 5753 5750 5748 5747 5745 5743 5743 5742 5741 5741 5742 5742 5743 5743 5744 5744 5745 5746 5747 5747
5779 5780 5780 5780 5782 5781 5780 5780 5779 5778 5777 5776 5774 5775 5770 5768 5765 5763 5761 5758 5756 5754 5752 5749 5747 5745 5743 5740 5739 5737 5736 5735 5735 5735 5735 5735 5736 5736 5736 5737 5738 5738 5739 5740
5776 5777 5777 5778 5777 5777 5777 5776 5775 5774 5773 5772 5770 5769 5766 5764 5761 5759 5756 5754 5751 5749 5746 5744 5741 5739 5736 5734 5732 5731 5729 5728 5728 5728 5728 5728 5729 5729 5729 5730 5731 5731 5732 5732
5772 5773 5773 5773 5773 5773 5773 5772 5772 5771 5769 5768 5767 5764 5762 5760 5757 5755 5752 5749 5746 5743 5741 5738 5735 5733 5730 5728 5726 5724 5723 5723 5722 5722 5722 5722 5722 5722 5723 5723 5724 5724 5725 5726
5768 5769 5769 5770 5769 5769 5769 5768 5768 5767 5765 5764 5762 5760 5758 5755 5753 5750 5747 5744 5741 5738 5735 5732 5730 5727 5725 5723 5721 5719 5718 5717 5717 5716 5716 5716 5716 5716 5717 5717 5717 5718 5718 5719
5764 5765 5765 5766 5765 5765 5765 5765 5764 5763 5762 5760 5758 5757 5753 5751 5749 5746 5743 5739 5736 5733 5730 5727 5724 5722 5720 5718 5716 5714 5713 5712 5712 5711 5711 5711 5711 5711 5711 5711 5712 5712 5713 5713
5760 5761 5761 5762 5762 5762 5764 5761 5760 5759 5758 5756 5755 5753 5750 5747 5744 5741 5738 5734 5731 5728 5725 5722 5719 5717 5715 5713 5711 5709 5708 5707 5707 5707 5707 5706 5706 5706 5707 5707 5707 5707 5708 5708
5755 5757 5757 5758 5758 5758 5759 5758 5757 5756 5754 5753 5751 5749 5746 5743 5740 5736 5733 5729 5726 5723 5720 5718 5715 5712 5710 5708 5706 5705 5704 5703 5703 5703 5703 5703 5702 5702 5702 5702 5702 5702 5703 5703
5752 5753 5754 5754 5754 5754 5756 5755 5753 5753 5751 5750 5747 5744 5742 5739 5736 5733 5729 5725 5722 5719 5716 5714 5711 5708 5706 5704 5702 5701 5700 5700 5699 5699 5699 5699 5699 5699 5699 5699 5698 5698 5699 5699
5748 5749 5750 5750 5751 5752 5752 5751 5751 5750 5749 5746 5743 5740 5738 5735 5733 5729 5725 5721 5718 5715 5713 5710 5707 5705 5703 5701 5700 5698 5697 5696 5696 5696 5696 5696 5695 5695 5695 5695 5695 5695 5695 5696
5744 5746 5747 5747 5747 5750 5748 5748 5747 5747 5744 5742 5739 5737 5734 5732 5728 5725 5721 5718 5715 5712 5709 5707 5705 5702 5701 5699 5698 5696 5695 5694 5694 5693 5693 5693 5693 5693 5692 5693 5693 5693 5693 5693
5740 5743 5743 5745 5746 5746 5745 5745 5744 5743 5741 5739 5737 5734 5731 5728 5725 5721 5718 5715 5712 5709 5707 5705 5702 5700 5699 5697 5696 5695 5694 5693 5692 5692 5692 5691 5691 5691 5691 5690 5690 5690 5690 5690
5737 5738 5740 5741 5742 5742 5742 5741 5741 5740 5738 5736 5734 5732 5729 5726 5722 5719 5716 5713 5710 5707 5705 5703 5701 5699 5697 5696 5695 5694 5693 5692 5691 5691 5690 5690 5690 5689 5689 5689 5689 5689 5689 5688
5734 5735 5737 5738 5738 5739 5739 5738 5738 5737 5736 5734 5732 5729 5727 5724 5721 5718 5714 5711 5709 5706 5704 5702 5700 5699 5697 5696 5695 5694 5693 5692 5691 5690 5690 5689 5689 5689 5689 5689 5689 5688 5688 5688
5730 5732 5734 5736 5737 5737 5738 5736 5736 5735 5733 5732 5730 5727 5725 5723 5720 5717 5714 5711 5708 5706 5704 5702 5700 5699 5698 5696 5695 5694 5693 5692 5692 5691 5690 5690 5690 5689 5689 5689 5689 5688 5688 5688